Regional Weather Roundup
Issued by NWS Burlington, VT

Current Version | Previous Version | Text Only | Print | Product List | Glossary On
Versions: 1 2 3 4 5 6 7 8 9 10 11 12 13 14 15 16 17 18 19 20 21 22 23 24 25 26 27 28 29 30 31 32 33 34 35 36 37 38 39 40 41 42 43 44 45 46 47 48 49 50
141 ASUS41 KBTV 260710 RWRBTV VERMONT REGIONAL WEATHER ROUNDUP NATIONAL WEATHER SERVICE BURLINGTON VT 300 AM EDT WED JUL 26 2017 NOTE: "FAIR" INDICATES FEW OR NO CLOUDS BELOW 12,000 FEET WITH NO SIGNIFICANT WEATHER AND/OR OBSTRUCTIONS TO VISIBILITY. * THESE REPORTS ARE NOT UNDER NWS QUALITY CONTROL AND/OR DO NOT REPORT WEATHER SUCH AS PRECIPITATION AND FOG. VTZ001>019-260800- _____VERMONT_____ CITY SKY/WX TMP DP RH WIND PRES REMARKS BURLINGTON CLEAR 57 55 93 CALM 30.23F MONTPELIER FOG 54 54 100 CALM 30.29R VSB 1/4 MORRISVILLE FOG 53 53 100 CALM 30.26F VSB 1/4 ST. JOHNSBURY* N/A 56 56 100 MISG 30.23S LYNDONVILLE* FOG 52 51 98 CALM 30.26S VSB 1/2 MIDDLEBURY* FAIR 53 53 98 CALM 30.24S RUTLAND* PTCLDY 53 53 100 SE7 30.25F FOG SPRINGFIELD FOG 54 53 97 CALM 30.25S VSB 1/4 HIGHGATE* FAIR 55 55 100 SE3 30.22S NEWPORT* FOG 52 52 100 CALM 30.25S VSB 1/4 BENNINGTON MOCLDY 55 53 93 CALM 30.25S SUTTON* N/A 54 N/A N/A MISG N/A _____LAKE CHAMPLAIN_____ CITY SKY/WX TMP DP RH WIND PRES REMARKS $$ NYZ007-026>031-035-052-083-087-260800- _____NORTHERN NEW YORK_____ CITY SKY/WX TMP DP RH WIND PRES REMARKS PLATTSBURGH CLEAR 55 53 93 SW3 30.22F SARANAC LAKE FOG 46 46 100 CALM 30.23F VSB 1/4 MASSENA PTCLDY 53 53 100 CALM 30.21F FOG POTSDAM* CLEAR 36 36 100 CALM 30.21S FOG WATERTOWN CLOUDY 63 62 97 CALM 30.20F FT DRUM MOCLDY 62 59 90 S5 30.21S ALBANY CLEAR 58 56 93 CALM 30.24S GLENS FALLS PTCLDY 53 52 96 CALM 30.24S FOG $$ NHZ002-005-011-260800- _____NEW HAMPSHIRE_____ CITY SKY/WX TMP DP RH WIND PRES REMARKS LEBANON CLOUDY 55 55 100 CALM 30.24S FOG KEENE FOG 56 56 100 N3 30.25S VSB 3/4 MT WASHINGTON CLEAR 43 28 56 N7 N/A PLYMOUTH FAIR 51 50 96 CALM 30.24S FOG WHITEFIELD MOCLDY 48 45 89 CALM 30.25S $$ _____REGIONAL QUEBEC LOCATIONS_____ CITY SKY/WX TMP DP RH WIND PRES REMARKS MONTREAL CLEAR 63 59 88 SW5 30.19F QUEBEC CITY CLEAR 57 54 88 VRB2 30.18F SHERBROOKE CLEAR 48 48 100 E2 30.23F _____REGIONAL ONTARIO LOCATIONS_____ CITY SKY/WX TMP DP RH WIND PRES REMARKS OTTAWA CLEAR 55 55 100 CALM 30.21R ______KEY______ VSB - VISIBILITY IN MILES WCI - WIND CHILL INDEX HX - HEAT INDEX $$ NNNN

USA.gov is the U.S. government's official web portal to all federal, state and local government web resources and services.